Regional Weather Roundup
Issued by NWS Nashville, TN

Home | Current Version | Previous Version | Text Only | Print | Product List | Glossary On
Versions: 1 2 3 4 5 6 7 8 9 10 11 12 13 14 15 16 17 18 19 20 21 22 23 24 25 26 27
000
ASUS44 KOHX 230710
RWROHX
MIDDLE TENNESSEE HOURLY WEATHER ROUNDUP
NATIONAL WEATHER SERVICE NASHVILLE TN
200 AM CDT TUE MAY 23 2017

NOTE: "FAIR" INDICATES FEW OR NO CLOUDS BELOW 12,000 FEET WITH
NO SIGNIFICANT WEATHER AND/OR OBSTRUCTIONS TO VISIBILITY.

* THESE REPORTS ARE NOT UNDER NWS QUALITY CONTROL AND MAY NOT
  REPORT WEATHER SUCH AS PRECIPITATION AND FOG.


TNZ005>011-023>034-057-059-062>066-078-080-230800
...NORTHERN MIDDLE TENNESSEE...

CITY           SKY/WX    TMP DP  RH WIND       PRES   REMARKS
CLARKSVILLE    CLOUDY    62  54  74 E3        29.89F
CROSSVILLE     CLOUDY    60  55  83 CALM      29.92F
GALLATIN       MOCLDY    63  54  72 CALM      29.91S
DICKSON        CLOUDY    60  55  83 CALM      29.89F
NASHVILLE      CLOUDY    65  55  70 NE5       29.89F
PORTLAND       MOCLDY    61  57  88 CALM      29.89S
SMYRNA           N/A    N/A N/A N/A MISG        N/A
SPARTA         CLOUDY    63  59  88 CALM      29.87F
WEST NASHVILLE PTCLDY    64  55  72 CALM      29.87F
$$
TNZ056-058-060-061-075>077-079-093>097-230800
...SOUTHERN MIDDLE TENNESSEE...

CITY           SKY/WX    TMP DP  RH WIND       PRES   REMARKS
COLUMBIA       CLOUDY    63  59  88 CALM      29.87S
FAYETTEVILLE     N/A     64  63  94 SE5       29.87F
MCMINNVILLE    CLOUDY    63  61  94 CALM      29.89S
MURFREESBORO   CLOUDY    64  56  75 CALM      29.87F
PULASKI        CLOUDY    64  61  88 CALM      29.87F
SHELBYVILLE    CLOUDY    63  57  82 CALM      29.88F
TULLAHOMA      CLOUDY    64  55  72 E3        29.89F
WINCHESTER     CLOUDY    64  64 100 NE3       29.90S
$$


...KEY TO REMARKS...
VSB - VISIBILITY IN MILES
WCI - WIND CHILL INDEX
HX  - HEAT INDEX





USA.gov is the U.S. government's official web portal to all federal, state and local government web resources and services.